Theta_e
306 305 303 303 304 305 305 305 306 307 307 307 307 306 306 307 307 308 308 309 309 310 310 311 312 311 301 294 294 302 310 306 303 301 298 296 294 293 290 291 293 293 294 294 295 296 298
304 303 303 304 304 305 306 307 307 308 308 307 307 307 307 307 307 308 308 308 308 309 310 311 312 308 296 289 301 303 302 302 301 300 298 298 295 295 291 291 290 293 292 292 293 295 296
303 303 304 305 306 306 305 306 307 307 308 308 308 307 307 307 307 307 308 308 309 310 310 310 310 303 295 294 303 305 303 302 301 300 297 298 298 295 293 289 293 292 287 289 292 295 295
304 305 307 308 305 305 307 307 308 308 308 308 308 307 307 307 307 307 307 309 311 310 309 310 308 301 292 301 306 302 303 301 301 301 299 300 299 295 293 294 291 287 287 283 290 291 298
305 307 308 305 305 306 306 307 308 309 307 308 308 308 307 307 308 307 308 309 311 310 309 308 302 298 290 303 298 300 301 298 300 301 302 302 298 293 292 287 285 285 280 282 284 292 292
306 309 306 305 306 306 306 306 307 308 308 308 308 308 307 307 307 307 307 307 310 307 307 305 302 291 293 292 297 299 300 301 298 298 296 295 291 289 288 286 278 280 281 283 282 287 288
306 307 306 306 306 306 306 306 307 308 308 308 308 308 307 306 306 307 300 296 293 292 295 292 291 291 293 297 298 296 298 297 297 293 287 291 287 284 286 287 287 286 284 283 286 289 286
306 307 306 307 307 305 306 306 306 307 307 307 307 307 306 305 305 307 299 295 294 295 289 293 293 293 295 296 291 294 297 291 291 285 288 287 284 288 290 289 288 286 284 283 286 288 286
306 307 305 304 306 306 305 305 306 306 306 307 307 307 305 304 306 301 299 297 300 299 289 289 294 293 293 294 290 291 293 291 289 284 284 284 286 290 286 287 285 286 284 284 283 287 288
307 306 305 305 305 306 305 305 305 306 306 307 307 306 305 303 300 297 298 301 300 298 283 284 287 290 292 292 288 295 294 292 287 283 285 285 288 285 286 285 287 282 288 287 286 283 278
307 307 306 305 305 305 306 304 305 305 306 307 306 304 304 300 296 296 300 301 300 294 273 284 287 295 292 290 290 291 294 291 285 284 285 282 283 284 284 285 287 284 289 288 287 284 282
307 308 307 306 305 305 305 305 305 305 306 306 305 303 302 294 295 299 300 299 294 281 271 283 287 286 286 287 287 290 290 292 289 285 285 284 288 289 288 289 290 290 287 288 286 284 276
308 307 307 307 306 305 305 306 304 305 306 305 304 303 300 296 296 299 300 294 280 275 282 281 281 284 284 283 285 286 284 284 281 278 278 282 283 288 290 285 289 288 285 278 276 276 275
307 308 307 306 305 305 304 305 305 304 305 305 304 302 298 298 295 298 295 286 272 276 281 284 283 284 281 283 283 283 283 281 285 282 279 277 276 284 288 286 283 284 285 279 272 273 276
307 307 307 307 306 306 305 305 305 305 305 304 299 292 293 295 296 296 289 276 276 278 284 282 283 280 280 282 283 282 282 281 284 285 278 277 277 286 287 289 287 283 281 286 280 282 279
307 307 307 306 306 305 305 304 305 305 305 302 290 289 291 296 296 293 285 279 280 284 284 283 279 281 278 280 280 281 280 284 283 286 286 282 276 284 286 289 288 284 286 281 282 273 273
304 306 306 306 306 305 305 304 305 305 305 299 289 285 293 297 297 289 280 279 283 288 287 283 281 280 281 280 281 281 280 284 286 285 286 284 281 281 285 282 280 282 280 281 282 280 275
302 303 306 306 306 305 305 304 305 305 303 295 287 281 294 296 286 283 280 284 288 286 288 286 285 283 282 282 281 281 280 283 287 286 281 285 282 277 278 284 285 284 281 281 277 275 278
299 301 302 306 305 305 304 304 304 305 302 290 286 287 293 293 277 278 282 283 287 285 285 285 284 285 285 282 279 282 283 288 287 286 283 284 280 274 275 280 283 280 282 282 282 281 277
299 299 301 302 306 305 304 304 305 304 302 292 286 283 286 289 285 281 281 283 283 287 285 285 285 286 284 282 283 281 282 286 287 287 289 287 281 277 274 275 280 277 280 282 280 279 279
297 298 300 300 305 305 304 304 304 304 303 293 286 285 287 282 282 283 284 283 282 282 285 286 283 284 283 276 280 281 283 284 285 288 286 284 277 279 280 281 280 279 280 282 280 281 279
296 297 299 299 300 304 305 304 304 304 303 293 284 284 284 284 284 284 285 282 282 283 284 283 282 284 284 282 283 279 283 283 282 285 283 283 277 278 274 280 279 279 281 282 283 283 282
295 296 297 299 299 300 304 303 303 303 302 292 288 289 287 284 283 283 282 284 284 286 286 287 285 284 283 285 287 287 287 287 286 284 282 281 279 276 273 277 278 275 280 281 281 283 283
295 295 296 296 298 299 298 303 303 303 302 292 289 289 284 279 283 283 284 286 285 285 285 286 286 285 287 289 288 286 284 283 284 284 285 280 279 275 274 275 270 280 284 284 283 283 284
294 295 295 296 297 298 298 303 303 303 303 294 291 288 285 280 283 283 284 286 286 288 286 285 286 289 290 287 282 276 275 277 275 282 282 283 280 272 274 273 276 280 284 283 282 281 285
294 294 295 295 297 296 297 295 302 303 303 297 293 292 288 282 282 287 285 286 283 284 285 285 288 289 288 282 279 273 273 275 275 278 283 282 281 279 271 271 269 280 285 287 287 278 286
294 294 294 295 295 297 296 296 302 302 302 298 294 294 289 284 286 287 285 285 286 285 284 284 286 286 286 278 276 275 275 279 276 276 276 277 275 275 271 274 277 284 286 288 276 279 287
293 293 294 294 295 296 296 296 301 302 302 299 294 295 291 285 286 288 289 285 284 286 283 284 285 284 281 279 278 275 275 279 279 280 279 277 275 274 273 272 272 286 285 281 285 287 287
293 293 294 294 294 295 296 295 296 301 301 300 292 296 295 290 287 291 292 292 292 290 286 284 286 284 285 280 278 278 278 279 279 276 282 278 281 280 279 280 285 288 287 289 287 287 288
Wind_Speed
5 4 3 3 4 5 6 6 6 7 8 10 10 12 13 14 15 15 16 16 16 16 14 12 14 17 2 6 4 4 9 10 4 4 7 7 12 4 4 4 9 5 6 11 15 17 18
2 2 2 1 3 4 6 7 8 9 9 9 10 12 13 14 15 15 16 16 15 14 12 11 13 12 4 15 1 6 8 6 6 5 6 6 5 2 2 1 2 7 15 17 12 13 14
2 2 3 3 2 4 6 7 9 9 9 9 11 12 14 15 16 17 18 17 14 10 9 8 9 3 4 5 4 8 5 3 2 1 4 2 2 1 1 2 5 8 16 17 9 6 7
4 5 7 4 1 4 5 7 9 10 8 9 11 12 14 15 17 18 19 17 11 2 2 4 6 1 5 2 5 4 7 8 7 3 2 1 2 2 0 2 4 7 5 7 9 20 5
7 9 5 0 2 4 6 7 10 11 7 8 11 12 14 15 17 17 18 9 6 5 2 3 3 3 3 4 6 6 3 6 8 4 5 1 2 3 2 5 5 3 10 11 10 11 12
10 12 4 4 4 4 6 7 8 12 10 8 10 12 13 15 16 16 13 1 4 3 2 0 2 2 5 4 4 6 3 3 4 5 3 5 4 2 3 5 6 13 16 16 16 7 16
10 11 7 9 5 3 7 8 8 8 9 10 10 11 12 14 16 17 5 2 4 3 7 3 2 1 2 6 3 7 5 5 3 4 5 3 4 7 8 6 12 14 17 20 21 13 19
11 12 6 5 6 4 6 8 10 8 9 9 9 9 11 13 15 13 2 5 2 1 2 1 2 2 3 2 3 13 7 5 4 7 6 4 5 3 6 9 13 16 18 23 17 14 15
12 15 6 3 8 7 4 6 10 10 10 9 7 8 11 13 11 4 4 2 1 2 2 3 1 1 1 3 3 11 7 1 4 7 8 1 3 5 12 13 16 13 16 20 21 19 16
11 8 7 5 6 9 5 4 8 11 10 9 4 5 9 15 4 1 2 4 2 1 4 1 1 3 3 2 2 4 4 2 6 5 5 1 3 10 10 13 14 19 8 16 20 11 10
12 11 11 7 7 8 5 4 6 10 11 9 1 4 7 8 2 2 1 1 2 2 3 2 2 1 4 5 2 7 4 4 8 6 2 6 7 12 11 13 16 12 15 16 16 13 12
15 14 13 11 8 8 8 5 3 8 10 3 1 2 5 2 1 0 2 3 2 6 4 2 2 2 3 4 3 5 7 6 1 2 3 4 4 4 7 18 12 14 13 12 6 6 6
16 16 14 13 11 9 9 7 3 6 7 2 2 2 2 1 3 1 1 2 5 4 2 3 3 2 3 3 3 4 5 12 9 7 11 8 5 4 8 16 5 16 5 3 2 3 6
16 17 16 15 14 9 8 9 5 3 3 1 2 4 3 2 2 1 2 4 4 2 4 2 3 5 3 2 2 4 2 4 9 4 1 6 5 6 9 6 8 10 5 3 6 3 6
19 17 17 18 17 13 10 10 7 5 3 4 4 2 2 2 4 2 4 3 7 7 6 8 3 3 3 1 2 2 3 2 3 5 6 5 4 6 6 7 11 7 5 7 6 4 6
22 19 18 18 19 14 12 9 9 7 6 9 2 2 3 1 5 3 4 5 4 4 5 3 4 3 5 3 2 2 2 1 1 2 2 1 6 1 7 6 5 5 10 2 2 4 5
17 21 20 20 20 18 14 11 11 10 11 11 3 1 2 2 1 3 3 6 5 5 3 5 5 5 4 4 3 2 3 3 1 4 1 0 1 4 4 6 8 7 7 5 3 4 4
20 19 21 21 21 20 17 15 13 12 15 6 3 1 1 1 3 1 3 5 5 5 3 3 4 4 5 7 4 4 5 3 3 1 1 1 1 4 4 7 5 1 6 6 3 5 3
18 21 18 22 23 22 20 17 16 16 15 4 4 2 1 2 4 3 4 4 3 4 5 6 4 3 3 6 4 4 4 4 4 3 1 0 1 4 1 2 4 5 9 9 3 1 5
22 22 20 23 25 24 23 21 19 20 17 4 3 5 2 2 1 5 4 4 4 2 4 4 5 5 5 4 2 5 5 4 2 5 4 2 1 2 1 3 3 9 16 11 2 1 4
24 20 21 23 20 25 26 24 23 22 21 5 3 5 4 7 8 6 5 6 8 6 2 4 2 5 8 4 3 5 4 1 1 3 2 1 3 2 4 7 7 8 10 8 0 1 2
22 24 22 23 23 23 28 26 26 25 24 6 5 4 0 5 7 15 9 7 11 4 8 5 4 10 8 6 6 7 7 5 4 3 2 1 3 1 1 1 4 3 4 2 8 10 8
24 23 22 22 23 24 30 29 29 28 21 4 3 1 1 7 7 10 11 7 11 8 4 4 9 6 7 10 7 4 5 4 4 6 5 3 4 2 2 4 2 1 1 2 2 2 1
27 24 23 24 19 29 23 33 32 30 27 3 4 3 3 3 5 8 8 15 10 10 7 3 6 5 3 10 9 7 6 2 4 5 4 5 4 1 1 0 4 2 3 4 6 4 5
27 27 25 26 19 20 22 33 33 33 34 6 3 4 3 4 6 5 8 11 7 7 3 5 4 3 8 5 3 4 4 3 3 2 8 3 4 3 2 2 4 3 5 6 6 6 3
28 26 26 27 22 21 26 26 36 33 34 12 3 3 3 6 7 6 8 8 6 5 3 4 3 3 6 3 2 4 4 3 4 5 4 6 4 1 3 3 6 3 6 4 4 6 6
27 26 26 26 23 24 20 21 36 35 34 15 4 5 4 3 3 5 5 9 6 5 5 5 6 3 2 3 2 3 3 2 6 8 6 5 1 5 3 4 5 6 5 6 5 3 3
25 25 25 25 24 23 22 26 32 36 34 21 6 6 5 3 2 5 6 5 5 4 6 6 5 1 2 3 4 4 3 5 3 3 6 8 8 4 3 3 7 7 5 7 2 2 4
24 24 24 25 26 23 20 23 27 38 35 29 6 8 3 2 1 1 1 0 3 6 7 2 4 5 5 5 2 3 3 2 4 4 2 6 5 5 9 5 1 6 2 4 2 4 3
Wind_Direction
86 84 64 34 17 1 354 353 346 344 352 360 358 358 358 356 356 357 352 345 342 338 339 343 351 354 29 60 83 349 341 336 5 13 26 26 45 43 38 348 327 242 312 334 326 321 321
132 119 98 19 346 340 335 334 334 339 346 350 353 357 354 352 351 350 345 339 337 328 329 350 358 352 63 72 316 333 322 331 16 16 14 21 16 31 99 236 262 335 311 309 311 299 287
218 228 217 222 271 339 333 328 328 331 336 344 351 356 352 350 347 345 343 337 331 319 321 341 354 27 68 60 314 318 331 324 116 34 11 7 13 351 66 290 328 313 309 310 322 331 268
273 254 257 258 104 314 313 328 324 316 318 340 349 352 351 349 345 343 341 337 333 313 297 322 344 27 80 242 293 359 344 345 30 64 31 39 125 99 144 312 322 315 292 345 7 330 297
273 274 278 58 293 308 327 329 322 335 342 351 349 351 350 347 342 343 341 351 61 99 87 349 23 28 57 334 32 324 15 349 336 10 23 72 54 50 31 347 329 17 307 311 316 337 312
285 303 246 303 278 303 320 325 332 340 346 349 347 349 348 345 341 344 341 119 45 13 357 14 107 49 21 346 317 333 332 39 28 339 25 35 47 45 36 348 317 310 304 295 289 290 296
293 302 277 289 251 307 322 325 332 338 348 346 343 345 345 345 342 343 6 13 22 14 40 59 101 105 21 315 304 354 350 13 37 47 25 34 47 26 343 316 286 287 283 281 281 289 277
284 279 268 330 269 297 317 326 324 338 337 329 334 340 342 342 341 341 58 70 108 153 75 133 254 287 257 244 46 1 3 46 35 27 2 25 51 16 320 321 292 287 295 283 288 279 263
268 275 234 292 312 291 296 324 324 331 326 325 330 342 341 337 331 38 64 73 209 144 96 326 275 313 243 137 61 3 13 58 39 7 19 30 325 336 335 338 330 306 292 283 279 292 283
255 242 220 253 283 307 286 317 323 322 321 313 320 353 348 333 73 317 53 335 157 107 80 266 98 59 71 124 76 10 37 36 34 351 359 295 302 335 335 331 331 304 307 309 291 277 276
245 237 239 222 255 286 297 282 318 319 314 305 339 3 4 28 156 82 327 45 135 70 53 281 27 3 28 87 305 13 340 38 21 341 341 345 335 346 345 325 321 279 299 300 285 266 282
240 242 223 223 229 258 284 246 301 317 316 320 1 355 18 37 41 313 323 121 47 50 252 133 37 40 68 26 34 343 16 31 99 13 360 320 301 9 335 317 312 281 289 279 272 263 254
229 244 236 223 219 223 262 271 230 302 312 316 311 322 13 136 169 337 108 47 57 136 325 172 139 122 111 10 62 31 16 39 40 2 9 339 350 326 315 341 323 359 312 348 298 191 256
237 225 233 225 221 206 238 268 209 258 295 216 326 7 315 230 223 130 57 69 107 184 195 121 116 103 105 22 89 32 58 40 37 53 14 13 358 345 339 17 303 306 307 320 306 313 297
250 241 218 220 218 207 218 240 213 219 200 121 44 354 287 259 182 77 81 92 202 198 163 151 99 134 153 139 122 105 61 87 25 10 16 351 288 304 306 343 357 334 358 318 274 198 278
249 243 229 213 204 210 206 230 214 199 170 125 92 347 254 98 153 71 85 241 201 193 136 120 151 168 163 163 137 91 142 286 4 339 206 145 285 278 321 349 2 17 341 327 292 5 341
325 252 233 226 212 202 192 211 219 192 154 131 79 82 333 56 93 54 186 224 208 218 157 143 158 138 152 161 161 160 140 148 199 326 118 44 205 304 305 33 336 1 16 351 272 15 329
291 296 243 225 217 208 195 194 212 189 148 101 121 122 51 73 89 80 195 206 191 165 148 128 124 118 156 163 168 169 179 160 185 207 47 232 235 288 307 308 326 302 12 21 6 355 342
272 285 324 236 221 211 199 186 199 183 158 136 150 147 90 122 166 212 264 281 231 149 161 157 143 149 156 163 150 183 179 164 146 139 121 199 179 313 131 177 7 342 341 346 252 237 20
268 266 273 318 224 210 201 187 191 188 170 106 134 151 131 149 132 160 173 209 212 249 157 138 138 127 132 162 149 169 184 188 179 173 87 163 178 192 246 288 303 305 326 344 347 17 79
272 263 261 272 241 208 200 190 186 189 174 114 202 214 184 173 206 183 195 185 163 175 229 171 152 179 159 136 151 190 189 190 83 168 104 113 198 231 268 257 266 274 309 353 100 12 70
264 267 268 251 270 233 201 193 186 185 172 179 166 176 274 157 143 185 196 208 191 172 157 203 195 185 175 161 185 183 171 193 192 169 162 58 175 108 278 107 272 282 12 71 82 89 100
266 260 260 265 262 287 200 196 189 185 170 162 156 285 187 157 158 167 203 185 192 152 218 198 168 142 178 206 187 182 171 149 139 166 184 179 155 128 199 339 130 270 217 78 92 61 179
266 258 258 255 245 251 276 195 191 187 186 124 167 141 136 168 179 187 170 186 186 191 156 161 146 139 200 106 101 67 59 73 173 212 180 162 135 83 252 288 197 128 274 226 130 111 93
258 257 255 258 253 264 275 199 196 190 183 176 154 155 159 149 184 163 169 180 141 176 138 145 173 175 140 78 83 43 353 39 332 191 189 203 135 109 202 230 312 183 187 181 199 190 142
259 255 251 251 249 243 243 301 193 194 181 185 171 131 142 128 217 164 161 176 152 147 120 101 56 68 72 78 95 161 194 175 171 134 80 137 61 184 151 227 224 152 156 163 159 240 186
257 255 251 247 243 249 277 278 198 194 183 178 165 152 135 130 208 146 166 172 145 129 127 127 155 119 58 112 131 181 209 192 188 180 164 158 101 205 166 241 269 218 175 153 201 136 230
253 253 250 247 239 239 248 253 207 189 183 174 162 171 143 135 227 189 167 139 123 145 142 158 105 132 91 138 178 183 193 203 209 180 175 171 165 182 139 206 262 170 152 209 105 233 281
248 253 250 246 240 236 248 263 270 184 182 170 181 175 119 108 142 206 7 119 141 162 127 176 142 154 153 108 184 130 172 176 184 211 178 199 201 180 204 213 259 183 167 136 152 235 251